Time,TemperatureF,DewpointF,PressureIn,WindDirection,WindDirectionDegrees,WindSpeedMPH,WindSpeedGustMPH,Humidity,HourlyPrecipIn,Conditions,Clouds,dailyrainin,SoftwareType,DateUTC
2013-12-02 00:00:00,31.2,29.9,29.67,WSW,248,1.0,4.0,95,0.00,,,0.00,Wunderground v.1.15,2013-12-02 05:00:00,
2013-12-02 00:05:00,31.2,29.9,29.67,WSW,248,1.0,1.0,95,0.00,,,0.00,Wunderground v.1.15,2013-12-02 05:05:00,
2013-12-02 00:10:00,31.3,30.0,29.67,WSW,248,1.0,2.0,95,0.00,,,0.00,Wunderground v.1.15,2013-12-02 05:10:00,
2013-12-02 00:15:00,31.4,30.1,29.67,WSW,248,2.0,4.0,95,0.00,,,0.00,Wunderground v.1.15,2013-12-02 05:15:00,
2013-12-02 00:20:00,31.5,30.5,29.67,WSW,248,3.0,4.0,96,0.00,,,0.00,Wunderground v.1.15,2013-12-02 05:20:00,
2013-12-02 00:25:00,31.7,30.4,29.67,WSW,248,2.0,2.0,95,0.00,,,0.00,Wunderground v.1.15,2013-12-02 05:25:00,
2013-12-02 00:30:00,31.8,30.5,29.67,WSW,248,2.0,4.0,95,0.00,,,0.00,Wunderground v.1.15,2013-12-02 05:30:00,
2013-12-02 00:35:00,31.9,30.6,29.67,WSW,248,1.0,4.0,95,0.00,,,0.00,Wunderground v.1.15,2013-12-02 05:35:00,
2013-12-02 00:40:00,31.8,30.5,29.67,WSW,248,1.0,4.0,95,0.00,,,0.00,Wunderground v.1.15,2013-12-02 05:40:00,
2013-12-02 00:45:00,31.9,30.6,29.66,WSW,248,1.0,4.0,95,0.00,,,0.00,Wunderground v.1.15,2013-12-02 05:45:00,
2013-12-02 00:50:00,31.8,30.5,29.66,WSW,248,1.0,4.0,95,0.00,,,0.00,Wunderground v.1.15,2013-12-02 05:50:00,
2013-12-02 00:55:00,31.8,30.5,29.66,WSW,248,1.0,4.0,95,0.00,,,0.00,Wunderground v.1.15,2013-12-02 05:55:00,
2013-12-02 01:00:00,31.8,30.8,29.66,WSW,248,2.0,4.0,96,0.00,,,0.00,Wunderground v.1.15,2013-12-02 06:00:00,
2013-12-02 01:05:00,31.9,30.6,29.66,WSW,248,2.0,4.0,95,0.00,,,0.00,Wunderground v.1.15,2013-12-02 06:05:00,
2013-12-02 01:10:00,31.9,30.9,29.66,WSW,248,2.0,4.0,96,0.00,,,0.00,Wunderground v.1.15,2013-12-02 06:10:00,
2013-12-02 01:15:00,31.9,30.9,29.66,WSW,248,1.0,1.0,96,0.00,,,0.00,Wunderground v.1.15,2013-12-02 06:15:00,
2013-12-02 01:20:00,31.9,30.9,29.66,WSW,248,0.0,4.0,96,0.00,,,0.00,Wunderground v.1.15,2013-12-02 06:20:00,
2013-12-02 01:25:00,31.9,30.9,29.65,WSW,248,0.0,4.0,96,0.00,,,0.00,Wunderground v.1.15,2013-12-02 06:25:00,
2013-12-02 01:30:00,31.8,30.8,29.65,WSW,248,0.0,4.0,96,0.00,,,0.00,Wunderground v.1.15,2013-12-02 06:30:00,
2013-12-02 01:35:00,31.8,30.5,29.66,WSW,248,0.0,4.0,95,0.00,,,0.00,Wunderground v.1.15,2013-12-02 06:35:00,
2013-12-02 01:40:00,31.9,30.6,29.66,WSW,248,0.0,4.0,95,0.00,,,0.00,Wunderground v.1.15,2013-12-02 06:40:00,
2013-12-02 01:46:00,31.7,30.4,29.66,WSW,248,0.0,4.0,95,0.00,,,0.00,Wunderground v.1.15,2013-12-02 06:46:00,
2013-12-02 01:51:00,31.7,30.4,29.66,WSW,248,0.0,4.0,95,0.00,,,0.00,Wunderground v.1.15,2013-12-02 06:51:00,
2013-12-02 01:56:00,31.7,30.4,29.66,WSW,248,0.0,4.0,95,0.00,,,0.00,Wunderground v.1.15,2013-12-02 06:56:00,
2013-12-02 02:01:00,31.7,30.4,29.65,WSW,248,0.0,4.0,95,0.00,,,0.00,Wunderground v.1.15,2013-12-02 07:01:00,
2013-12-02 02:06:00,31.7,30.4,29.66,WSW,248,0.0,4.0,95,0.00,,,0.00,Wunderground v.1.15,2013-12-02 07:06:00,
2013-12-02 02:11:00,31.7,30.7,29.65,WSW,248,0.0,4.0,96,0.00,,,0.00,Wunderground v.1.15,2013-12-02 07:11:00,
2013-12-02 02:21:00,31.8,30.5,29.65,WSW,248,2.0,4.0,95,0.00,,,0.00,Wunderground v.1.15,2013-12-02 07:21:00,
2013-12-02 02:26:00,31.8,30.5,29.65,WSW,248,0.0,4.0,95,0.00,,,0.00,Wunderground v.1.15,2013-12-02 07:26:00,
2013-12-02 02:31:00,31.8,30.8,29.65,WSW,248,0.0,4.0,96,0.00,,,0.00,Wunderground v.1.15,2013-12-02 07:31:00,
2013-12-02 02:36:00,31.9,30.9,29.65,WSW,248,0.0,4.0,96,0.00,,,0.00,Wunderground v.1.15,2013-12-02 07:36:00,
2013-12-02 02:41:00,31.9,30.9,29.65,WSW,248,0.0,4.0,96,0.00,,,0.00,Wunderground v.1.15,2013-12-02 07:41:00,
2013-12-02 02:46:00,32.0,31.0,29.65,WSW,248,0.0,4.0,96,0.00,,,0.00,Wunderground v.1.15,2013-12-02 07:46:00,
2013-12-02 02:50:00,32.0,31.0,29.65,WSW,248,0.0,4.0,96,0.00,,,0.00,Wunderground v.1.15,2013-12-02 07:50:00,
2013-12-02 02:55:00,32.0,31.0,29.65,WSW,248,0.0,4.0,96,0.00,,,0.00,Wunderground v.1.15,2013-12-02 07:55:00,
2013-12-02 03:00:00,32.0,31.0,29.65,WSW,248,0.0,4.0,96,0.00,,,0.00,Wunderground v.1.15,2013-12-02 08:00:00,
2013-12-02 03:05:00,32.1,31.1,29.64,WSW,248,1.0,1.0,96,0.00,,,0.00,Wunderground v.1.15,2013-12-02 08:05:00,
2013-12-02 03:10:00,32.1,31.1,29.64,WSW,248,0.0,4.0,96,0.00,,,0.00,Wunderground v.1.15,2013-12-02 08:10:00,
2013-12-02 03:15:00,32.0,31.0,29.64,WSW,248,0.0,4.0,96,0.00,,,0.00,Wunderground v.1.15,2013-12-02 08:15:00,
2013-12-02 03:20:00,32.0,31.0,29.64,WSW,248,0.0,4.0,96,0.00,,,0.00,Wunderground v.1.15,2013-12-02 08:20:00,
2013-12-02 03:25:00,32.0,31.0,29.64,WSW,248,1.0,1.0,96,0.00,,,0.00,Wunderground v.1.15,2013-12-02 08:25:00,
2013-12-02 03:30:00,32.0,31.0,29.63,WSW,248,0.0,4.0,96,0.00,,,0.00,Wunderground v.1.15,2013-12-02 08:30:00,
2013-12-02 03:35:00,32.0,31.0,29.63,WSW,248,0.0,4.0,96,0.00,,,0.00,Wunderground v.1.15,2013-12-02 08:35:00,
2013-12-02 03:40:00,32.0,31.0,29.63,WSW,248,0.0,4.0,96,0.00,,,0.00,Wunderground v.1.15,2013-12-02 08:40:00,
2013-12-02 03:45:00,32.0,31.0,29.63,WSW,248,0.0,4.0,96,0.00,,,0.00,Wunderground v.1.15,2013-12-02 08:45:00,
2013-12-02 03:50:00,31.9,30.9,29.63,WSW,248,0.0,4.0,96,0.00,,,0.00,Wunderground v.1.15,2013-12-02 08:50:00,
2013-12-02 03:55:00,32.0,31.0,29.63,WSW,248,0.0,4.0,96,0.00,,,0.00,Wunderground v.1.15,2013-12-02 08:55:00,
2013-12-02 04:00:00,32.0,31.0,29.63,WSW,248,1.0,4.0,96,0.00,,,0.00,Wunderground v.1.15,2013-12-02 09:00:00,
2013-12-02 04:05:00,32.0,31.0,29.63,WSW,248,3.0,4.0,96,0.00,,,0.00,Wunderground v.1.15,2013-12-02 09:05:00,
2013-12-02 04:10:00,32.0,31.0,29.63,WSW,248,3.0,4.0,96,0.00,,,0.00,Wunderground v.1.15,2013-12-02 09:10:00,
2013-12-02 04:15:00,32.0,31.0,29.63,WSW,248,2.0,4.0,96,0.00,,,0.00,Wunderground v.1.15,2013-12-02 09:15:00,
2013-12-02 04:20:00,32.0,31.0,29.63,WSW,248,2.0,4.0,96,0.00,,,0.00,Wunderground v.1.15,2013-12-02 09:20:00,
2013-12-02 04:30:00,32.0,31.0,29.62,WSW,248,2.0,4.0,96,0.00,,,0.00,Wunderground v.1.15,2013-12-02 09:30:00,
2013-12-02 04:35:00,31.9,30.9,29.62,WSW,248,1.0,1.0,96,0.00,,,0.00,Wunderground v.1.15,2013-12-02 09:35:00,
2013-12-02 04:40:00,31.9,30.6,29.62,WSW,248,0.0,4.0,95,0.00,,,0.00,Wunderground v.1.15,2013-12-02 09:40:00,
2013-12-02 04:45:00,31.9,30.6,29.62,WSW,248,0.0,4.0,95,0.00,,,0.00,Wunderground v.1.15,2013-12-02 09:45:00,
2013-12-02 04:50:00,31.8,30.5,29.62,WSW,248,0.0,4.0,95,0.00,,,0.00,Wunderground v.1.15,2013-12-02 09:50:00,
2013-12-02 04:55:00,31.8,30.5,29.62,WSW,248,0.0,4.0,95,0.00,,,0.00,Wunderground v.1.15,2013-12-02 09:55:00,
2013-12-02 05:05:00,31.7,30.7,29.61,WSW,248,0.0,4.0,96,0.00,,,0.00,Wunderground v.1.15,2013-12-02 10:05:00,
2013-12-02 05:10:00,31.9,30.9,29.62,WSW,248,2.0,4.0,96,0.00,,,0.00,Wunderground v.1.15,2013-12-02 10:10:00,
2013-12-02 05:15:00,31.9,30.9,29.61,WSW,248,3.0,3.0,96,0.00,,,0.00,Wunderground v.1.15,2013-12-02 10:15:00,
2013-12-02 05:20:00,31.9,30.9,29.62,WSW,248,4.0,7.0,96,0.00,,,0.00,Wunderground v.1.15,2013-12-02 10:20:00,
2013-12-02 05:25:00,31.9,30.6,29.62,WSW,248,4.0,4.0,95,0.00,,,0.00,Wunderground v.1.15,2013-12-02 10:25:00,
2013-12-02 05:31:00,31.9,30.9,29.61,WSW,248,4.0,5.0,96,0.00,,,0.00,Wunderground v.1.15,2013-12-02 10:31:00,
2013-12-02 05:36:00,31.9,30.9,29.61,WSW,249,5.0,6.0,96,0.00,,,0.00,Wunderground v.1.15,2013-12-02 10:36:00,
2013-12-02 05:41:00,31.9,30.9,29.61,WSW,250,6.0,7.0,96,0.00,,,0.00,Wunderground v.1.15,2013-12-02 10:41:00,
2013-12-02 05:46:00,31.9,30.9,29.61,WSW,250,6.0,6.0,96,0.00,,,0.00,Wunderground v.1.15,2013-12-02 10:46:00,
2013-12-02 05:51:00,31.9,30.9,29.61,WSW,254,6.0,9.0,96,0.00,,,0.00,Wunderground v.1.15,2013-12-02 10:51:00,
2013-12-02 05:56:00,31.9,30.9,29.61,WSW,256,7.0,7.0,96,0.00,,,0.00,Wunderground v.1.15,2013-12-02 10:56:00,
2013-12-02 06:00:00,31.9,30.9,29.61,West,265,7.0,7.0,96,0.00,,,0.00,Wunderground v.1.15,2013-12-02 11:00:00,
2013-12-02 06:05:00,32.0,31.0,29.61,West,261,6.0,7.0,96,0.00,,,0.00,Wunderground v.1.15,2013-12-02 11:05:00,
2013-12-02 06:10:00,32.0,31.0,29.61,WSW,256,6.0,7.0,96,0.00,,,0.00,Wunderground v.1.15,2013-12-02 11:10:00,
2013-12-02 06:16:00,32.0,31.0,29.61,WSW,253,6.0,6.0,96,0.00,,,0.00,Wunderground v.1.15,2013-12-02 11:16:00,
2013-12-02 06:21:00,31.9,30.9,29.61,WSW,253,6.0,8.0,96,0.00,,,0.00,Wunderground v.1.15,2013-12-02 11:21:00,
2013-12-02 06:26:00,31.9,30.9,29.61,WSW,253,5.0,6.0,96,0.00,,,0.00,Wunderground v.1.15,2013-12-02 11:26:00,
2013-12-02 06:31:00,32.0,31.0,29.61,WSW,253,4.0,6.0,96,0.00,,,0.00,Wunderground v.1.15,2013-12-02 11:31:00,
2013-12-02 06:35:00,32.0,31.0,29.61,WSW,253,4.0,5.0,96,0.00,,,0.00,Wunderground v.1.15,2013-12-02 11:35:00,
2013-12-02 06:40:00,32.0,31.0,29.61,WSW,253,5.0,5.0,96,0.00,,,0.00,Wunderground v.1.15,2013-12-02 11:40:00,
2013-12-02 06:45:00,32.0,31.0,29.61,WSW,253,4.0,4.0,96,0.00,,,0.00,Wunderground v.1.15,2013-12-02 11:45:00,
2013-12-02 06:50:00,32.0,31.0,29.61,WSW,253,3.0,4.0,96,0.00,,,0.00,Wunderground v.1.15,2013-12-02 11:50:00,
2013-12-02 06:55:00,32.0,31.0,29.60,WSW,253,2.0,4.0,96,0.00,,,0.00,Wunderground v.1.15,2013-12-02 11:55:00,
2013-12-02 07:00:00,32.0,31.0,29.61,WSW,253,2.0,4.0,96,0.00,,,0.00,Wunderground v.1.15,2013-12-02 12:00:00,
2013-12-02 07:05:00,32.0,31.0,29.60,WSW,253,3.0,6.0,96,0.00,,,0.00,Wunderground v.1.15,2013-12-02 12:05:00,
2013-12-02 07:10:00,32.0,31.0,29.60,WSW,253,4.0,6.0,96,0.00,,,0.00,Wunderground v.1.15,2013-12-02 12:10:00,
2013-12-02 07:15:00,32.1,31.1,29.60,WSW,253,4.0,4.0,96,0.00,,,0.00,Wunderground v.1.15,2013-12-02 12:15:00,
2013-12-02 07:20:00,32.1,31.1,29.60,WSW,253,3.0,4.0,96,0.00,,,0.00,Wunderground v.1.15,2013-12-02 12:20:00,
2013-12-02 07:25:00,32.1,31.1,29.60,WSW,253,3.0,4.0,96,0.00,,,0.00,Wunderground v.1.15,2013-12-02 12:25:00,
2013-12-02 07:30:00,32.1,31.1,29.60,WSW,253,4.0,4.0,96,0.00,,,0.00,Wunderground v.1.15,2013-12-02 12:30:00,
2013-12-02 07:35:00,32.1,31.1,29.60,WSW,253,4.0,4.0,96,0.00,,,0.00,Wunderground v.1.15,2013-12-02 12:35:00,
2013-12-02 07:45:00,32.2,31.2,29.60,WSW,253,2.0,2.0,96,0.00,,,0.00,Wunderground v.1.15,2013-12-02 12:45:00,
2013-12-02 07:50:00,32.2,30.9,29.61,WSW,253,2.0,3.0,95,0.00,,,0.00,Wunderground v.1.15,2013-12-02 12:50:00,
2013-12-02 07:55:00,32.2,30.9,29.61,WSW,253,2.0,2.0,95,0.00,,,0.00,Wunderground v.1.15,2013-12-02 12:55:00,
2013-12-02 08:00:00,32.2,30.9,29.61,WSW,253,1.0,4.0,95,0.00,,,0.00,Wunderground v.1.15,2013-12-02 13:00:00,
2013-12-02 08:05:00,32.2,30.9,29.61,WSW,253,0.0,4.0,95,0.00,,,0.00,Wunderground v.1.15,2013-12-02 13:05:00,
2013-12-02 08:15:00,32.3,31.0,29.61,WSW,253,1.0,4.0,95,0.00,,,0.00,Wunderground v.1.15,2013-12-02 13:15:00,
2013-12-02 08:20:00,32.4,31.1,29.61,WSW,253,2.0,4.0,95,0.00,,,0.00,Wunderground v.1.15,2013-12-02 13:20:00,
2013-12-02 08:25:00,32.5,31.2,29.61,WSW,253,2.0,5.0,95,0.00,,,0.00,Wunderground v.1.15,2013-12-02 13:25:00,
2013-12-02 08:30:00,32.5,31.2,29.61,WSW,253,3.0,5.0,95,0.00,,,0.00,Wunderground v.1.15,2013-12-02 13:30:00,
2013-12-02 08:35:00,32.6,31.3,29.62,WSW,253,4.0,4.0,95,0.00,,,0.00,Wunderground v.1.15,2013-12-02 13:35:00,
2013-12-02 08:40:00,32.6,31.3,29.61,WSW,253,3.0,4.0,95,0.00,,,0.00,Wunderground v.1.15,2013-12-02 13:40:00,
2013-12-02 08:46:00,32.6,31.3,29.61,WSW,253,2.0,4.0,95,0.00,,,0.00,Wunderground v.1.15,2013-12-02 13:46:00,
2013-12-02 08:50:00,32.7,31.4,29.61,WSW,253,3.0,5.0,95,0.00,,,0.00,Wunderground v.1.15,2013-12-02 13:50:00,
2013-12-02 08:55:00,32.7,31.4,29.61,WSW,253,4.0,5.0,95,0.00,,,0.00,Wunderground v.1.15,2013-12-02 13:55:00,
2013-12-02 09:00:00,32.7,31.4,29.61,WSW,253,4.0,5.0,95,0.00,,,0.00,Wunderground v.1.15,2013-12-02 14:00:00,
2013-12-02 09:05:00,32.8,31.5,29.61,WSW,253,4.0,6.0,95,0.00,,,0.00,Wunderground v.1.15,2013-12-02 14:05:00,
2013-12-02 09:10:00,32.9,31.4,29.61,WSW,253,4.0,6.0,94,0.00,,,0.00,Wunderground v.1.15,2013-12-02 14:10:00,
2013-12-02 09:16:00,32.9,31.4,29.61,WSW,253,5.0,6.0,94,0.00,,,0.00,Wunderground v.1.15,2013-12-02 14:16:00,
2013-12-02 09:21:00,33.0,31.5,29.61,West,269,6.0,6.0,94,0.00,,,0.00,Wunderground v.1.15,2013-12-02 14:21:00,
2013-12-02 09:26:00,33.0,31.5,29.61,WSW,249,5.0,5.0,94,0.00,,,0.00,Wunderground v.1.15,2013-12-02 14:26:00,
2013-12-02 09:31:00,33.1,31.6,29.61,WSW,248,4.0,6.0,94,0.00,,,0.00,Wunderground v.1.15,2013-12-02 14:31:00,
2013-12-02 09:36:00,33.2,31.7,29.62,WSW,249,3.0,3.0,94,0.00,,,0.00,Wunderground v.1.15,2013-12-02 14:36:00,
2013-12-02 09:41:00,33.3,31.5,29.62,WSW,250,3.0,4.0,93,0.00,,,0.00,Wunderground v.1.15,2013-12-02 14:41:00,
2013-12-02 09:50:00,33.3,31.5,29.62,WSW,250,4.0,4.0,93,0.00,,,0.00,Wunderground v.1.15,2013-12-02 14:50:00,
2013-12-02 09:55:00,33.4,31.6,29.62,WSW,250,3.0,3.0,93,0.00,,,0.00,Wunderground v.1.15,2013-12-02 14:55:00,
2013-12-02 10:01:00,33.4,31.6,29.62,WSW,250,2.0,4.0,93,0.00,,,0.00,Wunderground v.1.15,2013-12-02 15:01:00,
2013-12-02 10:06:00,33.5,31.7,29.62,WSW,250,1.0,1.0,93,0.00,,,0.00,Wunderground v.1.15,2013-12-02 15:06:00,
2013-12-02 10:11:00,33.5,31.7,29.62,WSW,250,1.0,4.0,93,0.00,,,0.00,Wunderground v.1.15,2013-12-02 15:11:00,
2013-12-02 10:16:00,33.5,31.7,29.62,WSW,250,0.0,4.0,93,0.00,,,0.00,Wunderground v.1.15,2013-12-02 15:16:00,
2013-12-02 10:20:00,33.6,31.8,29.62,WSW,250,0.0,4.0,93,0.00,,,0.00,Wunderground v.1.15,2013-12-02 15:20:00,
2013-12-02 10:25:00,33.7,31.9,29.62,WSW,250,1.0,4.0,93,0.00,,,0.00,Wunderground v.1.15,2013-12-02 15:25:00,
2013-12-02 10:30:00,33.7,31.9,29.62,WSW,250,2.0,4.0,93,0.00,,,0.00,Wunderground v.1.15,2013-12-02 15:30:00,
2013-12-02 10:35:00,33.9,32.1,29.62,WSW,250,2.0,4.0,93,0.00,,,0.00,Wunderground v.1.15,2013-12-02 15:35:00,
2013-12-02 10:40:00,34.0,32.2,29.62,WSW,250,1.0,4.0,93,0.00,,,0.00,Wunderground v.1.15,2013-12-02 15:40:00,
2013-12-02 10:45:00,34.1,32.0,29.61,WSW,250,2.0,4.0,92,0.00,,,0.00,Wunderground v.1.15,2013-12-02 15:45:00,
2013-12-02 10:50:00,34.1,32.0,29.62,WSW,250,2.0,4.0,92,0.00,,,0.00,Wunderground v.1.15,2013-12-02 15:50:00,
2013-12-02 10:55:00,34.1,32.0,29.61,WSW,250,3.0,4.0,92,0.00,,,0.00,Wunderground v.1.15,2013-12-02 15:55:00,
2013-12-02 11:00:00,34.2,32.1,29.61,WSW,250,3.0,4.0,92,0.00,,,0.00,Wunderground v.1.15,2013-12-02 16:00:00,
2013-12-02 11:05:00,34.3,32.2,29.61,WSW,250,4.0,4.0,92,0.00,,,0.00,Wunderground v.1.15,2013-12-02 16:05:00,
2013-12-02 11:10:00,34.4,32.0,29.61,WSW,250,4.0,5.0,91,0.00,,,0.00,Wunderground v.1.15,2013-12-02 16:10:00,
2013-12-02 11:15:00,34.6,32.2,29.60,WSW,250,4.0,4.0,91,0.00,,,0.00,Wunderground v.1.15,2013-12-02 16:15:00,
2013-12-02 11:20:00,34.6,32.2,29.60,WSW,250,3.0,4.0,91,0.00,,,0.00,Wunderground v.1.15,2013-12-02 16:20:00,
2013-12-02 11:25:00,34.7,32.3,29.60,WSW,250,3.0,3.0,91,0.00,,,0.00,Wunderground v.1.15,2013-12-02 16:25:00,
2013-12-02 11:30:00,34.8,32.4,29.60,WSW,250,2.0,4.0,91,0.00,,,0.00,Wunderground v.1.15,2013-12-02 16:30:00,
2013-12-02 11:35:00,34.9,32.3,29.60,WSW,250,2.0,4.0,90,0.00,,,0.00,Wunderground v.1.15,2013-12-02 16:35:00,
2013-12-02 11:40:00,35.0,32.4,29.60,WSW,250,3.0,4.0,90,0.00,,,0.00,Wunderground v.1.15,2013-12-02 16:40:00,
2013-12-02 11:45:00,35.1,32.5,29.60,WSW,250,4.0,4.0,90,0.00,,,0.00,Wunderground v.1.15,2013-12-02 16:45:00,
2013-12-02 11:50:00,35.2,32.6,29.59,WSW,250,3.0,4.0,90,0.00,,,0.00,Wunderground v.1.15,2013-12-02 16:50:00,
2013-12-02 11:55:00,35.3,32.7,29.60,WSW,250,3.0,3.0,90,0.00,,,0.00,Wunderground v.1.15,2013-12-02 16:55:00,
2013-12-02 12:00:00,35.4,32.5,29.59,WSW,250,3.0,4.0,89,0.00,,,0.00,Wunderground v.1.15,2013-12-02 17:00:00,
2013-12-02 12:05:00,35.5,32.6,29.59,WSW,250,3.0,4.0,89,0.00,,,0.00,Wunderground v.1.15,2013-12-02 17:05:00,
2013-12-02 12:10:00,35.7,32.8,29.59,WSW,250,4.0,4.0,89,0.00,,,0.00,Wunderground v.1.15,2013-12-02 17:10:00,
2013-12-02 12:15:00,36.0,32.8,29.59,SW,236,4.0,5.0,88,0.00,,,0.00,Wunderground v.1.15,2013-12-02 17:15:00,
2013-12-02 12:20:00,36.1,32.9,29.58,SW,236,4.0,5.0,88,0.00,,,0.00,Wunderground v.1.15,2013-12-02 17:20:00,
2013-12-02 12:25:00,36.2,32.7,29.58,SW,236,3.0,3.0,87,0.00,,,0.00,Wunderground v.1.15,2013-12-02 17:25:00,
2013-12-02 12:30:00,36.3,32.8,29.58,SW,236,1.0,4.0,87,0.00,,,0.00,Wunderground v.1.15,2013-12-02 17:30:00,
2013-12-02 12:35:00,36.4,32.9,29.58,SW,236,0.0,4.0,87,0.00,,,0.01,Wunderground v.1.15,2013-12-02 17:35:00,
2013-12-02 12:40:00,36.3,32.8,29.57,SW,236,0.0,4.0,87,0.00,,,0.01,Wunderground v.1.15,2013-12-02 17:40:00,
2013-12-02 12:45:00,36.2,32.7,29.57,SW,236,0.0,4.0,87,0.00,,,0.01,Wunderground v.1.15,2013-12-02 17:45:00,
2013-12-02 12:50:00,36.2,32.7,29.57,SW,236,1.0,4.0,87,0.00,,,0.01,Wunderground v.1.15,2013-12-02 17:50:00,
2013-12-02 12:55:00,36.1,32.6,29.57,SW,236,2.0,4.0,87,0.00,,,0.01,Wunderground v.1.15,2013-12-02 17:55:00,
2013-12-02 13:01:00,36.1,32.9,29.57,SW,236,1.0,4.0,88,0.00,,,0.01,Wunderground v.1.15,2013-12-02 18:01:00,
2013-12-02 13:06:00,36.2,33.0,29.57,SW,236,0.0,4.0,88,0.00,,,0.01,Wunderground v.1.15,2013-12-02 18:06:00,
2013-12-02 13:11:00,36.4,33.2,29.57,SW,236,0.0,4.0,88,0.00,,,0.01,Wunderground v.1.15,2013-12-02 18:11:00,
2013-12-02 13:16:00,36.6,33.1,29.57,SW,236,0.0,4.0,87,0.00,,,0.01,Wunderground v.1.15,2013-12-02 18:16:00,
2013-12-02 13:21:00,36.7,33.2,29.57,SW,236,0.0,4.0,87,0.00,,,0.01,Wunderground v.1.15,2013-12-02 18:21:00,
2013-12-02 13:25:00,36.8,33.3,29.57,SW,236,0.0,4.0,87,0.00,,,0.01,Wunderground v.1.15,2013-12-02 18:25:00,
2013-12-02 13:30:00,36.8,33.3,29.57,SW,236,0.0,4.0,87,0.00,,,0.01,Wunderground v.1.15,2013-12-02 18:30:00,
2013-12-02 13:36:00,36.8,33.3,29.57,SW,236,0.0,4.0,87,0.00,,,0.01,Wunderground v.1.15,2013-12-02 18:36:00,
2013-12-02 13:41:00,36.8,33.0,29.57,SW,236,0.0,4.0,86,0.00,,,0.01,Wunderground v.1.15,2013-12-02 18:41:00,
2013-12-02 13:46:00,36.8,33.3,29.57,SW,236,0.0,4.0,87,0.00,,,0.01,Wunderground v.1.15,2013-12-02 18:46:00,
2013-12-02 13:51:00,36.8,33.3,29.56,SW,236,0.0,4.0,87,0.00,,,0.01,Wunderground v.1.15,2013-12-02 18:51:00,
2013-12-02 13:56:00,36.8,33.3,29.57,SW,236,0.0,4.0,87,0.00,,,0.01,Wunderground v.1.15,2013-12-02 18:56:00,
2013-12-02 14:01:00,36.8,33.0,29.56,SW,236,0.0,4.0,86,0.00,,,0.01,Wunderground v.1.15,2013-12-02 19:01:00,
2013-12-02 14:10:00,36.5,33.0,29.56,SW,236,2.0,4.0,87,0.00,,,0.01,Wunderground v.1.15,2013-12-02 19:10:00,
2013-12-02 14:15:00,36.4,32.9,29.56,SW,236,1.0,1.0,87,0.00,,,0.01,Wunderground v.1.15,2013-12-02 19:15:00,
2013-12-02 14:20:00,36.4,32.9,29.56,SW,236,1.0,4.0,87,0.00,,,0.01,Wunderground v.1.15,2013-12-02 19:20:00,
2013-12-02 14:25:00,36.4,32.9,29.56,SW,236,1.0,4.0,87,0.00,,,0.01,Wunderground v.1.15,2013-12-02 19:25:00,
2013-12-02 14:30:00,36.4,32.9,29.56,SW,236,1.0,4.0,87,0.00,,,0.01,Wunderground v.1.15,2013-12-02 19:30:00,
2013-12-02 14:35:00,36.4,32.9,29.55,SW,236,1.0,1.0,87,0.00,,,0.02,Wunderground v.1.15,2013-12-02 19:35:00,
2013-12-02 14:40:00,36.4,33.2,29.55,SW,236,0.0,4.0,88,0.00,,,0.02,Wunderground v.1.15,2013-12-02 19:40:00,
2013-12-02 14:45:00,36.4,33.2,29.55,SW,236,1.0,4.0,88,0.00,,,0.02,Wunderground v.1.15,2013-12-02 19:45:00,
2013-12-02 14:50:00,36.4,32.9,29.55,SW,236,1.0,4.0,87,0.00,,,0.02,Wunderground v.1.15,2013-12-02 19:50:00,
2013-12-02 14:55:00,36.3,33.1,29.55,SW,236,0.0,4.0,88,0.00,,,0.02,Wunderground v.1.15,2013-12-02 19:55:00,
2013-12-02 15:00:00,36.2,33.0,29.55,SW,236,0.0,4.0,88,0.00,,,0.02,Wunderground v.1.15,2013-12-02 20:00:00,
2013-12-02 15:05:00,36.2,33.0,29.55,SW,236,0.0,4.0,88,0.00,,,0.02,Wunderground v.1.15,2013-12-02 20:05:00,
2013-12-02 15:10:00,36.2,33.0,29.55,SW,236,0.0,4.0,88,0.00,,,0.03,Wunderground v.1.15,2013-12-02 20:10:00,
2013-12-02 15:15:00,36.2,33.0,29.55,SW,236,0.0,4.0,88,0.00,,,0.03,Wunderground v.1.15,2013-12-02 20:15:00,
2013-12-02 15:20:00,36.2,33.0,29.55,SW,236,0.0,4.0,88,0.00,,,0.03,Wunderground v.1.15,2013-12-02 20:20:00,
2013-12-02 15:25:00,36.1,32.9,29.55,SW,236,1.0,4.0,88,0.00,,,0.03,Wunderground v.1.15,2013-12-02 20:25:00,
2013-12-02 15:30:00,36.0,32.8,29.55,SW,236,1.0,4.0,88,0.00,,,0.03,Wunderground v.1.15,2013-12-02 20:30:00,
2013-12-02 15:35:00,35.9,33.0,29.55,SW,236,1.0,4.0,89,0.00,,,0.03,Wunderground v.1.15,2013-12-02 20:35:00,
2013-12-02 15:45:00,35.8,32.9,29.56,SW,236,1.0,4.0,89,0.00,,,0.03,Wunderground v.1.15,2013-12-02 20:45:00,
2013-12-02 15:50:00,35.7,32.8,29.55,SW,236,1.0,4.0,89,0.00,,,0.03,Wunderground v.1.15,2013-12-02 20:50:00,
2013-12-02 15:55:00,35.7,32.8,29.56,SW,236,1.0,4.0,89,0.00,,,0.03,Wunderground v.1.15,2013-12-02 20:55:00,
2013-12-02 16:00:00,35.7,32.8,29.56,SW,236,2.0,4.0,89,0.00,,,0.03,Wunderground v.1.15,2013-12-02 21:00:00,
2013-12-02 16:05:00,35.6,32.7,29.56,SW,236,2.0,2.0,89,0.00,,,0.03,Wunderground v.1.15,2013-12-02 21:05:00,
2013-12-02 16:10:00,35.6,32.7,29.56,SW,236,1.0,4.0,89,0.00,,,0.04,Wunderground v.1.15,2013-12-02 21:10:00,
2013-12-02 16:15:00,35.6,32.7,29.56,SW,236,0.0,4.0,89,0.00,,,0.04,Wunderground v.1.15,2013-12-02 21:15:00,
2013-12-02 16:20:00,35.5,32.6,29.56,SW,236,0.0,4.0,89,0.00,,,0.04,Wunderground v.1.15,2013-12-02 21:20:00,
2013-12-02 16:25:00,35.5,32.9,29.56,SW,236,1.0,4.0,90,0.00,,,0.04,Wunderground v.1.15,2013-12-02 21:25:00,
2013-12-02 16:30:00,35.3,32.4,29.56,SW,236,2.0,4.0,89,0.00,,,0.04,Wunderground v.1.15,2013-12-02 21:30:00,
2013-12-02 16:35:00,35.3,32.7,29.56,SW,236,3.0,4.0,90,0.00,,,0.04,Wunderground v.1.15,2013-12-02 21:35:00,
2013-12-02 16:40:00,35.2,32.6,29.56,SW,236,3.0,4.0,90,0.00,,,0.04,Wunderground v.1.15,2013-12-02 21:40:00,
2013-12-02 16:46:00,35.1,32.5,29.56,SW,236,1.0,1.0,90,0.00,,,0.04,Wunderground v.1.15,2013-12-02 21:46:00,
2013-12-02 16:51:00,35.0,32.4,29.56,SW,236,0.0,4.0,90,0.00,,,0.04,Wunderground v.1.15,2013-12-02 21:51:00,
2013-12-02 16:55:00,34.9,32.5,29.56,SW,236,1.0,4.0,91,0.00,,,0.04,Wunderground v.1.15,2013-12-02 21:55:00,
2013-12-02 17:00:00,34.9,32.5,29.56,SW,236,3.0,4.0,91,0.00,,,0.04,Wunderground v.1.15,2013-12-02 22:00:00,
2013-12-02 17:05:00,35.0,32.6,29.56,SW,236,4.0,4.0,91,0.00,,,0.04,Wunderground v.1.15,2013-12-02 22:05:00,
2013-12-02 17:10:00,35.0,32.6,29.56,SW,236,4.0,4.0,91,0.00,,,0.04,Wunderground v.1.15,2013-12-02 22:10:00,
2013-12-02 17:15:00,35.0,32.6,29.56,WSW,239,4.0,4.0,91,0.00,,,0.04,Wunderground v.1.15,2013-12-02 22:15:00,
2013-12-02 17:21:00,35.0,32.6,29.57,WSW,240,4.0,6.0,91,0.00,,,0.04,Wunderground v.1.15,2013-12-02 22:21:00,
2013-12-02 17:26:00,34.9,32.5,29.57,WSW,240,4.0,4.0,91,0.00,,,0.04,Wunderground v.1.15,2013-12-02 22:26:00,
2013-12-02 17:31:00,34.8,32.4,29.57,WSW,240,3.0,4.0,91,0.00,,,0.04,Wunderground v.1.15,2013-12-02 22:31:00,
2013-12-02 17:36:00,34.8,32.4,29.56,WSW,240,3.0,3.0,91,0.00,,,0.04,Wunderground v.1.15,2013-12-02 22:36:00,
2013-12-02 17:41:00,34.8,32.4,29.56,WSW,240,3.0,4.0,91,0.00,,,0.04,Wunderground v.1.15,2013-12-02 22:41:00,
2013-12-02 17:46:00,34.8,32.4,29.57,WSW,240,3.0,3.0,91,0.00,,,0.04,Wunderground v.1.15,2013-12-02 22:46:00,
2013-12-02 17:50:00,34.8,32.4,29.57,WSW,240,3.0,4.0,91,0.00,,,0.04,Wunderground v.1.15,2013-12-02 22:50:00,
2013-12-02 17:56:00,34.8,32.4,29.57,WSW,240,3.0,3.0,91,0.00,,,0.04,Wunderground v.1.15,2013-12-02 22:56:00,
2013-12-02 18:01:00,34.8,32.4,29.57,WSW,240,3.0,4.0,91,0.00,,,0.05,Wunderground v.1.15,2013-12-02 23:01:00,
2013-12-02 18:06:00,34.8,32.4,29.57,WSW,240,3.0,3.0,91,0.00,,,0.05,Wunderground v.1.15,2013-12-02 23:06:00,
2013-12-02 18:11:00,34.8,32.4,29.57,WSW,240,2.0,4.0,91,0.00,,,0.05,Wunderground v.1.15,2013-12-02 23:11:00,
2013-12-02 18:16:00,34.7,32.3,29.57,WSW,240,1.0,4.0,91,0.00,,,0.05,Wunderground v.1.15,2013-12-02 23:16:00,
2013-12-02 18:25:00,34.7,32.3,29.58,WSW,240,1.0,1.0,91,0.00,,,0.05,Wunderground v.1.15,2013-12-02 23:25:00,
2013-12-02 18:30:00,34.7,32.3,29.58,WSW,240,0.0,4.0,91,0.00,,,0.05,Wunderground v.1.15,2013-12-02 23:30:00,
2013-12-02 18:35:00,34.6,32.2,29.58,WSW,240,0.0,4.0,91,0.00,,,0.05,Wunderground v.1.15,2013-12-02 23:35:00,
2013-12-02 18:40:00,34.6,32.2,29.58,WSW,240,0.0,4.0,91,0.00,,,0.05,Wunderground v.1.15,2013-12-02 23:40:00,
2013-12-02 18:45:00,34.7,32.3,29.58,WSW,240,1.0,4.0,91,0.00,,,0.05,Wunderground v.1.15,2013-12-02 23:45:00,
2013-12-02 18:50:00,34.7,32.3,29.58,WSW,240,1.0,4.0,91,0.00,,,0.05,Wunderground v.1.15,2013-12-02 23:50:00,
2013-12-02 18:55:00,34.7,32.3,29.58,WSW,240,0.0,4.0,91,0.00,,,0.05,Wunderground v.1.15,2013-12-02 23:55:00,
2013-12-02 19:00:00,34.8,32.4,29.58,WSW,240,0.0,4.0,91,0.00,,,0.05,Wunderground v.1.15,2013-12-03 00:00:00,
2013-12-02 19:05:00,34.9,32.5,29.58,WSW,240,0.0,4.0,91,0.00,,,0.05,Wunderground v.1.15,2013-12-03 00:05:00,
2013-12-02 19:10:00,35.0,32.6,29.58,WSW,240,0.0,4.0,91,0.00,,,0.05,Wunderground v.1.15,2013-12-03 00:10:00,
2013-12-02 19:15:00,35.0,32.6,29.58,WSW,240,0.0,4.0,91,0.00,,,0.05,Wunderground v.1.15,2013-12-03 00:15:00,
2013-12-02 19:20:00,35.0,32.6,29.58,WSW,240,0.0,4.0,91,0.00,,,0.05,Wunderground v.1.15,2013-12-03 00:20:00,
2013-12-02 19:30:00,35.1,32.7,29.58,WSW,240,0.0,4.0,91,0.00,,,0.05,Wunderground v.1.15,2013-12-03 00:30:00,
2013-12-02 19:35:00,35.1,32.7,29.58,WSW,240,0.0,4.0,91,0.00,,,0.05,Wunderground v.1.15,2013-12-03 00:35:00,
2013-12-02 19:40:00,35.1,32.7,29.58,WSW,240,0.0,4.0,91,0.00,,,0.05,Wunderground v.1.15,2013-12-03 00:40:00,
2013-12-02 19:45:00,35.0,32.6,29.58,WSW,240,0.0,4.0,91,0.00,,,0.05,Wunderground v.1.15,2013-12-03 00:45:00,
2013-12-02 19:50:00,35.1,32.7,29.58,WSW,240,0.0,4.0,91,0.00,,,0.05,Wunderground v.1.15,2013-12-03 00:50:00,
2013-12-02 19:55:00,35.1,32.7,29.58,WSW,240,0.0,4.0,91,0.00,,,0.05,Wunderground v.1.15,2013-12-03 00:55:00,
2013-12-02 20:05:00,35.3,32.7,29.57,WSW,240,2.0,2.0,90,0.00,,,0.05,Wunderground v.1.15,2013-12-03 01:05:00,
2013-12-02 20:10:00,35.5,32.9,29.58,WSW,240,2.0,4.0,90,0.00,,,0.05,Wunderground v.1.15,2013-12-03 01:10:00,
2013-12-02 20:15:00,35.6,33.0,29.57,West,259,3.0,5.0,90,0.00,,,0.05,Wunderground v.1.15,2013-12-03 01:15:00,
2013-12-02 20:20:00,35.8,33.2,29.58,West,259,4.0,5.0,90,0.00,,,0.05,Wunderground v.1.15,2013-12-03 01:20:00,
2013-12-02 20:25:00,35.7,32.8,29.58,West,259,2.0,2.0,89,0.00,,,0.06,Wunderground v.1.15,2013-12-03 01:25:00,
2013-12-02 20:30:00,35.7,32.8,29.58,West,259,0.0,4.0,89,0.00,,,0.06,Wunderground v.1.15,2013-12-03 01:30:00,
2013-12-02 20:35:00,35.6,32.7,29.57,West,259,0.0,4.0,89,0.00,,,0.06,Wunderground v.1.15,2013-12-03 01:35:00,
2013-12-02 20:40:00,35.5,32.6,29.57,West,259,0.0,4.0,89,0.00,,,0.06,Wunderground v.1.15,2013-12-03 01:40:00,
2013-12-02 20:45:00,35.6,33.0,29.57,WSW,258,0.0,4.0,90,0.00,,,0.06,Wunderground v.1.15,2013-12-03 01:45:00,
2013-12-02 20:50:00,35.5,32.6,29.57,WSW,258,0.0,4.0,89,0.00,,,0.06,Wunderground v.1.15,2013-12-03 01:50:00,
2013-12-02 20:55:00,35.4,32.8,29.57,WSW,258,0.0,4.0,90,0.00,,,0.06,Wunderground v.1.15,2013-12-03 01:55:00,
2013-12-02 21:00:00,35.3,32.7,29.57,WSW,258,0.0,4.0,90,0.00,,,0.06,Wunderground v.1.15,2013-12-03 02:00:00,
2013-12-02 21:10:00,35.2,32.6,29.57,WSW,258,0.0,4.0,90,0.00,,,0.06,Wunderground v.1.15,2013-12-03 02:10:00,
2013-12-02 21:15:00,35.1,32.5,29.57,WSW,258,0.0,4.0,90,0.00,,,0.06,Wunderground v.1.15,2013-12-03 02:15:00,
2013-12-02 21:20:00,34.9,32.3,29.57,WSW,258,0.0,4.0,90,0.00,,,0.06,Wunderground v.1.15,2013-12-03 02:20:00,
2013-12-02 21:25:00,34.9,32.5,29.56,WSW,258,0.0,4.0,91,0.00,,,0.06,Wunderground v.1.15,2013-12-03 02:25:00,
2013-12-02 21:30:00,34.9,32.5,29.56,WSW,258,0.0,4.0,91,0.00,,,0.06,Wunderground v.1.15,2013-12-03 02:30:00,
2013-12-02 21:40:00,34.8,32.4,29.57,WSW,258,0.0,4.0,91,0.00,,,0.06,Wunderground v.1.15,2013-12-03 02:40:00,
2013-12-02 21:45:00,34.8,32.4,29.56,WSW,258,0.0,4.0,91,0.00,,,0.06,Wunderground v.1.15,2013-12-03 02:45:00,
2013-12-02 21:50:00,34.8,32.4,29.56,WSW,258,0.0,4.0,91,0.00,,,0.06,Wunderground v.1.15,2013-12-03 02:50:00,
2013-12-02 21:55:00,34.8,32.4,29.56,WSW,258,0.0,4.0,91,0.00,,,0.06,Wunderground v.1.15,2013-12-03 02:55:00,
2013-12-02 22:00:00,34.8,32.4,29.56,WSW,258,0.0,4.0,91,0.00,,,0.06,Wunderground v.1.15,2013-12-03 03:00:00,
2013-12-02 22:05:00,34.7,32.3,29.56,WSW,258,0.0,4.0,91,0.00,,,0.06,Wunderground v.1.15,2013-12-03 03:05:00,
2013-12-02 22:11:00,34.8,32.7,29.56,WSW,258,0.0,4.0,92,0.00,,,0.06,Wunderground v.1.15,2013-12-03 03:11:00,
2013-12-02 22:16:00,34.8,32.7,29.56,WSW,258,0.0,4.0,92,0.00,,,0.06,Wunderground v.1.15,2013-12-03 03:16:00,
2013-12-02 22:20:00,35.0,32.9,29.56,WSW,258,0.0,4.0,92,0.00,,,0.06,Wunderground v.1.15,2013-12-03 03:20:00,
2013-12-02 22:26:00,35.0,32.9,29.56,WSW,258,0.0,4.0,92,0.00,,,0.06,Wunderground v.1.15,2013-12-03 03:26:00,
2013-12-02 22:31:00,34.9,32.8,29.56,WSW,258,0.0,4.0,92,0.00,,,0.06,Wunderground v.1.15,2013-12-03 03:31:00,
2013-12-02 22:36:00,34.8,32.7,29.57,WSW,258,0.0,4.0,92,0.00,,,0.06,Wunderground v.1.15,2013-12-03 03:36:00,
2013-12-02 22:40:00,34.7,32.6,29.57,WSW,258,0.0,4.0,92,0.00,,,0.06,Wunderground v.1.15,2013-12-03 03:40:00,
2013-12-02 22:45:00,34.6,32.5,29.57,WSW,258,0.0,4.0,92,0.00,,,0.06,Wunderground v.1.15,2013-12-03 03:45:00,
2013-12-02 22:50:00,34.6,32.5,29.57,WSW,258,0.0,4.0,92,0.00,,,0.06,Wunderground v.1.15,2013-12-03 03:50:00,
2013-12-02 22:55:00,34.6,32.5,29.57,WSW,258,0.0,4.0,92,0.00,,,0.06,Wunderground v.1.15,2013-12-03 03:55:00,
2013-12-02 23:00:00,34.5,32.4,29.57,WSW,258,0.0,4.0,92,0.00,,,0.06,Wunderground v.1.15,2013-12-03 04:00:00,
2013-12-02 23:06:00,34.5,32.4,29.57,WSW,258,0.0,4.0,92,0.00,,,0.06,Wunderground v.1.15,2013-12-03 04:06:00,
2013-12-02 23:10:00,34.6,32.5,29.57,WSW,258,0.0,4.0,92,0.00,,,0.06,Wunderground v.1.15,2013-12-03 04:10:00,
2013-12-02 23:15:00,34.5,32.4,29.57,WSW,258,0.0,4.0,92,0.00,,,0.06,Wunderground v.1.15,2013-12-03 04:15:00,
2013-12-02 23:20:00,34.4,32.3,29.57,WSW,258,0.0,4.0,92,0.00,,,0.06,Wunderground v.1.15,2013-12-03 04:20:00,
2013-12-02 23:25:00,34.4,32.6,29.57,WSW,258,0.0,4.0,93,0.00,,,0.06,Wunderground v.1.15,2013-12-03 04:25:00,
2013-12-02 23:30:00,34.4,32.6,29.57,WSW,258,0.0,4.0,93,0.00,,,0.06,Wunderground v.1.15,2013-12-03 04:30:00,
2013-12-02 23:35:00,34.4,32.6,29.57,WSW,258,0.0,4.0,93,0.00,,,0.06,Wunderground v.1.15,2013-12-03 04:35:00,
2013-12-02 23:40:00,34.5,32.7,29.57,WSW,258,0.0,4.0,93,0.00,,,0.06,Wunderground v.1.15,2013-12-03 04:40:00,
2013-12-02 23:50:00,34.5,32.7,29.56,WSW,258,0.0,4.0,93,0.00,,,0.06,Wunderground v.1.15,2013-12-03 04:50:00,
2013-12-02 23:55:00,34.5,32.7,29.56,WSW,258,0.0,4.0,93,0.00,,,0.06,Wunderground v.1.15,2013-12-03 04:55:00,